DW8231 Weather Reports


Display with metric or nautical units.
time (UTC)temp
F
wind
direction
speed
MPH
gust
MPH
rain 1hr
in
rain 24hr
in
rain mn
in
humidity
%
barometer
mb
20260502221055 64 249 2.0 8.0 0.00 0.00 0.00 34 1011.7
20260502220554 64 237 2.0 13.0 0.00 0.00 0.00 33 1011.8
20260502220054 64 256 6.0 15.0 0.00 0.00 0.00 32 1011.8
20260502215553 64 267 7.0 15.0 0.00 0.00 0.00 32 1011.9
20260502215053 65 264 5.0 12.0 0.00 0.00 0.00 32 1012.1
20260502214551 65 234 2.0 10.0 0.00 0.00 0.00 34 1012.1
20260502214051 65 232 3.0 12.0 0.00 0.00 0.00 32 1012.1
20260502213550 65 255 4.0 12.0 0.00 0.00 0.00 31 1012.3
20260502213100 65 232 5.0 13.0 0.00 0.00 0.00 32 1012.3
20260502212552 65 251 3.0 14.0 0.00 0.00 0.00 32 1012.4
20260502211549 65 232 3.0 12.0 0.00 0.00 0.00 32 1012.6
20260502211047 65 232 5.0 10.0 0.00 0.00 0.00 32 1012.7
20260502210546 64 232 3.0 14.0 0.00 0.00 0.00 32 1012.8
20260502210045 64 253 7.0 14.0 0.00 0.00 0.00 33 1012.9
20260502205545 64 261 4.0 13.0 0.00 0.00 0.00 33 1013.0
20260502205044 64 247 6.0 13.0 0.00 0.00 0.00 32 1013.1
20260502204544 64 232 5.0 15.0 0.00 0.00 0.00 34 1013.2
20260502204043 64 270 6.0 13.0 0.00 0.00 0.00 32 1013.3
20260502203543 64 194 5.0 12.0 0.00 0.00 0.00 33 1013.4
20260502203042 63 275 2.0 15.0 0.00 0.00 0.00 33 1013.4
20260502202542 63 261 6.0 15.0 0.00 0.00 0.00 33 1013.5
20260502201545 61 231 8.0 13.0 0.00 0.00 0.00 34 1013.8
20260502201038 61 215 4.0 15.0 0.00 0.00 0.00 35 1013.9
20260502200538 61 252 5.0 15.0 0.00 0.00 0.00 33 1014.0
20260502200036 61 242 7.0 13.0 0.00 0.00 0.00 33 1014.1
20260502195536 61 238 3.0 13.0 0.00 0.00 0.00 34 1014.3
20260502195035 61 223 3.0 13.0 0.00 0.00 0.00 33 1014.4
20260502194534 61 259 3.0 13.0 0.00 0.00 0.00 33 1014.4
20260502194034 62 237 6.0 11.0 0.00 0.00 0.00 33 1014.5
20260502193534 62 245 3.0 13.0 0.00 0.00 0.00 33 1014.6
20260502193032 61 244 6.0 14.0 0.00 0.00 0.00 32 1014.7
20260502192533 61 236 6.0 14.0 0.00 0.00 0.00 34 1014.7
20260502191530 61 269 7.0 15.0 0.00 0.00 0.00 34 1014.9
20260502191030 60 236 5.0 12.0 0.00 0.00 0.00 33 1015.1
20260502190528 60 232 6.0 11.0 0.00 0.00 0.00 34 1015.1
20260502190027 60 254 4.0 15.0 0.00 0.00 0.00 34 1015.3
20260502185527 60 275 4.0 10.0 0.00 0.00 0.00 33 1015.2
20260502185026 59 225 3.0 12.0 0.00 0.00 0.00 36 1015.3
20260502184526 59 259 6.0 13.0 0.00 0.00 0.00 34 1015.6
20260502184025 60 268 5.0 15.0 0.00 0.00 0.00 34 1015.6
20260502183525 60 265 7.0 15.0 0.00 0.00 0.00 34 1015.8
20260502183024 60 229 5.0 14.0 0.00 0.00 0.00 35 1015.8
20260502182526 60 242 4.0 14.0 0.00 0.00 0.00 35 1015.8
20260502181525 59 249 8.0 15.0 0.00 0.00 0.00 35 1016.0
20260502181022 59 196 5.0 12.0 0.00 0.00 0.00 35 1016.0
20260502180520 59 213 3.0 15.0 0.00 0.00 0.00 36 1016.2
20260502170508 57 271 6.0 14.0 0.00 0.00 0.00 37 1017.0
20260502164003 56 278 4.0 12.0 0.00 0.00 0.00 37 1017.5
20260502163503 55 232 3.0 12.0 0.00 0.00 0.00 37 1017.5
20260502163100 55 291 4.0 16.0 0.00 0.00 0.00 38 1017.6
20260502162600 55 275 7.0 16.0 0.00 0.00 0.00 37 1017.6
20260502161601 55 274 6.0 15.0 0.00 0.00 0.00 39 1017.7
20260502161059 55 234 5.0 15.0 0.00 0.00 0.00 38 1017.7
20260502160558 54 257 7.0 15.0 0.00 0.00 0.00 39 1017.8
20260502151551 53 250 4.0 9.0 0.00 0.00 0.00 43 1018.2
20260502151048 53 251 4.0 8.0 0.00 0.00 0.00 43 1018.2
20260502150546 53 269 4.0 9.0 0.00 0.00 0.00 44 1018.3
20260502130521 44 259 2.0 7.0 0.00 0.00 0.00 63 1018.8
20260502123512 42 294 1.0 4.0 0.00 0.00 0.00 65 1018.7
20260502123011 41 303 0.0 3.0 0.00 0.00 0.00 65 1018.8
20260502122508 41 303 1.0 3.0 0.00 0.00 0.00 65 1018.8
20260502121520 40 303 0.0 3.0 0.00 0.00 0.00 66 1018.9
20260502121005 40 303 0.0 2.0 0.00 0.00 0.00 65 1018.8
20260502120504 40 303 0.0 3.0 0.00 0.00 0.00 66 1018.8
20260502115601 39 303 0.0 2.0 0.00 0.00 0.00 67 1018.8
20260502115104 39 303 0.0 2.0 0.00 0.00 0.00 68 1018.7
20260502114559 38 303 0.0 2.0 0.00 0.00 0.00 69 1018.7
20260502114058 38 304 0.0 1.0 0.00 0.00 0.00 70 1018.7
20260502113602 38 303 0.0 1.0 0.00 0.00 0.00 71 1018.6
20260502113058 37 303 0.0 1.0 0.00 0.00 0.00 72 1018.5
20260502112557 36 303 0.0 0.0 0.00 0.00 0.00 72 1018.6
20260502111618 36 303 0.0 0.0 0.00 0.00 0.00 72 1018.6
20260502111102 36 303 0.0 0.0 0.00 0.00 0.00 71 1018.5
20260502110558 36 303 0.0 0.0 0.00 0.00 0.00 71 1018.5
20260502110058 36 303 0.0 0.0 0.00 0.00 0.00 71 1018.5
20260502105600 37 303 0.0 0.0 0.00 0.00 0.00 71 1018.5
20260502105057 37 304 0.0 0.0 0.00 0.00 0.00 71 1018.5
20260502104556 37 303 0.0 0.0 0.00 0.00 0.00 71 1018.5
20260502104056 37 303 0.0 0.0 0.00 0.00 0.00 71 1018.4
20260502103556 37 303 0.0 0.0 0.00 0.00 0.00 70 1018.4
20260502103108 37 303 0.0 0.0 0.00 0.00 0.00 70 1018.5
20260502102556 38 304 0.0 0.0 0.00 0.00 0.00 69 1018.5
20260502101609 38 303 0.0 1.0 0.00 0.00 0.00 68 1018.4
20260502101054 38 304 0.0 0.0 0.00 0.00 0.00 68 1018.4
20260502100553 38 303 0.0 0.0 0.00 0.00 0.00 67 1018.5
20260502091053 39 304 0.0 0.0 0.00 0.00 0.00 67 1018.4
20260502090556 39 304 0.0 3.0 0.00 0.00 0.00 67 1018.4
20260502071051 40 36 0.0 0.0 0.00 0.00 0.00 64 1018.6
20260502070551 41 36 0.0 0.0 0.00 0.00 0.00 64 1018.6
20260502070051 41 36 0.0 0.0 0.00 0.00 0.00 63 1018.7
20260502065551 41 36 0.0 0.0 0.00 0.00 0.00 62 1018.7
20260502065050 41 36 0.0 0.0 0.00 0.00 0.00 61 1018.8
20260502064551 41 36 0.0 0.0 0.00 0.00 0.00 61 1018.8
20260502064052 41 36 0.0 0.0 0.00 0.00 0.00 61 1018.9
20260502063550 41 36 0.0 1.0 0.00 0.00 0.00 60 1018.9
20260502063050 41 36 0.0 1.0 0.00 0.00 0.00 59 1018.9
20260502062551 41 36 0.0 0.0 0.00 0.00 0.00 59 1018.9
20260502061553 41 36 0.0 0.0 0.00 0.00 0.00 58 1018.9
20260502061051 42 36 0.0 0.0 0.00 0.00 0.00 57 1018.9
20260502060551 42 36 0.0 0.0 0.00 0.00 0.00 57 1018.9
20260502060051 42 36 0.0 0.0 0.00 0.00 0.00 56 1018.8
20260502055551 42 36 0.0 2.0 0.00 0.00 0.00 55 1018.8
20260502055051 42 36 0.0 2.0 0.00 0.00 0.00 55 1018.9
20260502054558 42 36 0.0 2.0 0.00 0.00 0.00 55 1018.9
20260502054053 42 36 0.0 2.0 0.00 0.00 0.00 55 1018.9
20260502053550 42 36 0.0 2.0 0.00 0.00 0.00 54 1018.9
20260502053054 42 36 0.0 0.0 0.00 0.00 0.00 54 1018.9
20260502052550 42 36 0.0 0.0 0.00 0.00 0.00 54 1018.9
20260502051549 42 36 0.0 0.0 0.00 0.00 0.00 53 1018.8
20260502051050 43 36 0.0 0.0 0.00 0.00 0.00 52 1018.8
20260502050549 43 36 0.0 1.0 0.00 0.00 0.00 52 1018.9
20260502050049 43 36 0.0 1.0 0.00 0.00 0.00 51 1018.7
20260502045552 43 36 0.0 0.0 0.00 0.00 0.00 52 1018.8
20260502045049 43 36 0.0 0.0 0.00 0.00 0.00 52 1018.7
20260502044550 43 36 0.0 0.0 0.00 0.00 0.00 50 1018.7
20260502044049 43 36 0.0 0.0 0.00 0.00 0.00 50 1018.7
20260502043550 43 36 0.0 0.0 0.00 0.00 0.00 50 1018.7
20260502043051 44 36 0.0 0.0 0.00 0.00 0.00 50 1018.7
20260502042551 44 36 0.0 0.0 0.00 0.00 0.00 49 1018.8
20260502041550 44 36 0.0 0.0 0.00 0.00 0.00 49 1018.7
20260502041049 44 36 0.0 0.0 0.00 0.00 0.00 49 1018.7
20260502040549 44 36 0.0 0.0 0.00 0.00 0.00 49 1018.8
20260502040049 44 36 0.0 0.0 0.00 0.00 0.00 48 1018.8
20260502035551 45 36 0.0 0.0 0.00 0.00 0.00 48 1018.9
20260502035049 45 36 0.0 0.0 0.00 0.00 0.00 48 1018.8
20260502034549 45 36 0.0 0.0 0.00 0.00 0.00 47 1018.9
20260502034049 45 36 0.0 0.0 0.00 0.00 0.00 46 1018.9
20260502033549 45 36 0.0 1.0 0.00 0.00 0.00 46 1018.9
20260502033049 46 36 0.0 2.0 0.00 0.00 0.00 45 1018.9
20260502032549 46 36 0.0 2.0 0.00 0.00 0.00 45 1018.9
20260502031549 46 36 0.0 0.0 0.00 0.00 0.00 44 1018.9
20260502031049 46 36 0.0 0.0 0.00 0.00 0.00 44 1018.9
20260502030549 46 36 0.0 0.0 0.00 0.00 0.00 44 1018.9
20260502030054 46 36 0.0 0.0 0.00 0.00 0.00 44 1018.9
20260502025549 46 36 0.0 0.0 0.00 0.00 0.00 43 1018.9
20260502025051 46 36 0.0 0.0 0.00 0.00 0.00 43 1018.8
20260502024552 46 36 0.0 0.0 0.00 0.00 0.00 43 1018.8
20260502024048 46 36 0.0 0.0 0.00 0.00 0.00 42 1018.8
20260502023552 46 36 0.0 0.0 0.00 0.00 0.00 42 1018.8
20260502023052 46 36 0.0 0.0 0.00 0.00 0.00 41 1018.8
20260502022550 46 36 0.0 0.0 0.00 0.00 0.00 41 1018.8
20260502021548 47 36 0.0 0.0 0.00 0.00 0.00 41 1018.7
20260502021048 47 36 0.0 0.0 0.00 0.00 0.00 40 1018.7
20260502020547 47 36 0.0 0.0 0.00 0.00 0.00 41 1018.7
20260502020047 47 36 0.0 0.0 0.00 0.00 0.00 40 1018.6
20260502015547 48 36 0.0 0.0 0.00 0.00 0.00 39 1018.6
20260502015048 48 36 0.0 0.0 0.00 0.00 0.00 40 1018.6
20260502014549 48 36 0.0 0.0 0.00 0.00 0.00 40 1018.5
20260502014047 49 36 0.0 0.0 0.00 0.00 0.00 39 1018.4
20260502013547 49 36 0.0 0.0 0.00 0.00 0.00 38 1018.4
20260502013050 50 36 0.0 0.0 0.00 0.00 0.00 38 1018.3
20260502012547 50 36 0.0 0.0 0.00 0.00 0.00 38 1018.3
20260502011548 50 36 0.0 0.0 0.00 0.00 0.00 38 1018.2
20260502011047 50 36 0.0 0.0 0.00 0.00 0.00 39 1018.2
20260502010547 51 36 0.0 0.0 0.00 0.00 0.00 39 1018.2
20260502010052 51 36 0.0 0.0 0.00 0.00 0.00 38 1018.2
20260502005547 51 36 0.0 0.0 0.00 0.00 0.00 37 1018.2
20260502005047 51 36 0.0 0.0 0.00 0.00 0.00 36 1018.2
20260502004603 51 36 0.0 0.0 0.00 0.00 0.00 37 1018.3
20260502004048 51 36 0.0 0.0 0.00 0.00 0.00 37 1018.2
20260502003547 51 36 0.0 1.0 0.00 0.00 0.00 36 1018.2
20260502003047 51 36 0.0 1.0 0.00 0.00 0.00 35 1018.2
20260502002548 51 36 0.0 1.0 0.00 0.00 0.00 36 1018.1
20260502001547 51 36 0.0 4.0 0.00 0.00 0.00 35 1018.2
20260502001048 52 36 1.0 11.0 0.00 0.00 0.00 33 1018.2
20260502000548 52 36 5.0 11.0 0.00 0.00 0.00 33 1018.1
20260502000054 52 32 1.0 4.0 0.00 0.00 0.00 34 1018.1
20260501235547 52 32 1.0 8.0 0.00 0.00 0.00 34 1018.1
20260501235047 52 32 2.0 11.0 0.00 0.00 0.00 33 1018.1
20260501234547 52 33 3.0 11.0 0.00 0.00 0.00 32 1018.2
20260501234048 53 355 3.0 8.0 0.00 0.00 0.00 33 1018.2
20260501233547 53 290 1.0 5.0 0.00 0.00 0.00 34 1018.1
20260501233046 52 290 1.0 5.0 0.00 0.00 0.00 33 1018.1
20260501232547 52 290 0.0 4.0 0.00 0.00 0.00 33 1018.1
20260501231546 52 291 1.0 7.0 0.00 0.00 0.00 33 1018.2
20260501231046 53 292 2.0 18.0 0.00 0.00 0.00 33 1018.1
20260501230545 53 292 8.0 18.0 0.00 0.00 0.00 33 1017.9
20260501230046 53 9 1.0 6.0 0.00 0.00 0.00 33 1018.2
20260501225547 52 11 2.0 6.0 0.00 0.00 0.00 35 1018.1
20260501225048 52 9 2.0 7.0 0.00 0.00 0.00 34 1018.2
20260501224545 51 9 4.0 7.0 0.00 0.00 0.00 34 1018.2
20260501224045 51 355 2.0 6.0 0.00 0.00 0.00 34 1018.1
20260501223544 52 355 1.0 8.0 0.00 0.00 0.00 34 1018.2
20260501223047 52 351 0.0 5.0 0.00 0.00 0.00 34 1018.2
20260501222545 52 351 0.0 8.0 0.00 0.00 0.00 34 1018.3
20260501221546 52 336 1.0 11.0 0.00 0.00 0.00 35 1018.3